Regional Weather Roundup
Issued by NWS

Home | Current Version | Previous Version | Text Only | Print | Product List | Glossary On
Versions: 1 2 3 4 5 6 7 8 9 10 11 12 13 14 15 16 17 18 19 20 21 22 23 24 25 26 27 28 29 30 31 32 33 34 35 36 37 38 39 40 41 42 43 44 45 46 47 48 49 50
000
ASUS43 KBIS 200010
RWRND

NORTH DAKOTA REGIONAL WEATHER ROUNDUP
NATIONAL WEATHER SERVICE BISMARCK ND
600 PM CST MON FEB 19 2018

NOTE: "FAIR" INDICATES FEW OR NO CLOUDS BELOW 12,000 FEET WITH NO
SIGNIFICANT WEATHER AND/OR OBSTRUCTIONS TO VISIBILITY.


NDZ001>003-009>011-017-200100-
NORTHWEST NORTH DAKOTA

CITY           SKY/WX    TMP DP  RH WIND       PRES   REMARKS
WILLISTON      CLOUDY     3  -3  76 W3        30.15F
6HR MIN TEMP:  -3; 6HR MAX TEMP:   6;

MINOT          CLOUDY     8  -6  52 W3        30.17R
MINOT AFB        N/A      6  -3  65 W5        30.16S WCI  -2
$$

NDZ018>021-031>035-040>046-200100-
SOUTHWEST NORTH DAKOTA

CITY           SKY/WX    TMP DP  RH WIND       PRES   REMARKS
BISMARCK       LGT SNOW   4  -1  80 NE10      30.17S WCI -11
6HR MIN TEMP:   4; 6HR MAX TEMP:   7; 6HR PCP:  0.02;

DICKINSON      LGT SNOW   2  -3  80 NE7       30.05F VSB 1   WCI -11
GARRISON         N/A      4  -4  69 VRB3      30.15R
6HR MIN TEMP:   3; 6HR MAX TEMP:   7;

HETTINGER ARPT LGT SNOW   1  -5  75 NE14      30.02F WCI -17
$$

NDZ004>008-012>016-024-026-027-054-200100-
NORTHEAST NORTH DAKOTA

CITY           SKY/WX    TMP DP  RH WIND       PRES   REMARKS
GRAND FORKS    CLOUDY     6  -4  63 N13       30.23S WCI -10
GRND FRKS AFB  FAIR       5  -6  60 N15       30.23R WCI -13
DEVILS LAKE    CLOUDY     4  -7  60 NE6       30.21  WCI  -7
$$

NDZ022-023-025-028>030-036>039-047>053-200100-
SOUTHEAST NORTH DAKOTA

CITY           SKY/WX    TMP DP  RH WIND       PRES   REMARKS
FARGO          CLOUDY     7  -1  70 N22       30.15R WCI -14
6HR MIN TEMP:   7; 6HR MAX TEMP:  10;

JAMESTOWN      LGT SNOW   3  -2  78 N18       30.13R VSB 3/4 WCI -17
$$





USA.gov is the U.S. government's official web portal to all federal, state and local government web resources and services.